Weather History for KBAB - November, 2013

Change the Weather History Date:

Monday, November 18, 2013

  Actual Average Record
Temperature  
Mean Temperature 50 °F -  
Max Temperature 62 °F 61 °F 73 °F (2008)
Min Temperature 38 °F 44 °F 32 °F (2000)
Degree Days  
Heating Degree Days 15    
Moisture  
Dew Point 41 °F    
Average Humidity 66    
Maximum Humidity 89    
Minimum Humidity 48    
Precipitation  
Precipitation 0.00 in - - ()
Sea Level Pressure  
Sea Level Pressure 30.29 in    
Wind  
Wind Speed 3 mph (SSE)    
Max Wind Speed 10 mph    
Max Gust Speed -    
Visibility 9 miles    
Events      
Averages and records for this station are not official NWS values.
T = Trace of Precipitation, MM = Missing Value Source: NWS Daily Summary

Daily Weather History Graph

Daily Weather History Graph

Search for Another Location

Airport or City:

Trip Planner

Search our weather history database for the weather conditions in past years. The results will help you decide how hot, cold, wet, or windy it might be!

Date:

Astronomy

Nov. 18, 2013 Rise Set
Actual Time 6:52 AM PST 4:48 PM PST
Civil Twilight 6:23 AM PST 5:17 PM PST
Nautical Twilight 5:51 AM PST 5:50 PM PST
Astronomical Twilight 5:19 AM PST 6:22 PM PST
Moon 5:55 PM PST (11/18) 7:45 AM PST (11/18)
Length of Visible Light 10h 54m
Length of Day
9h 56m
Full, 99% of the Moon is Illuminated
Nov 18
Full
Nov 25
Last Quarter
Dec 2
New
Dec 9
First Quarter
Dec 17
Full

Hourly Weather History & Observations

Time (PST) Temp. Dew Point Humidity Pressure Visibility Wind Dir Wind Speed Gust Speed Precip Events Conditions
12:58 AM 44.6 °F 34.3 °F 67% 30.30 in 10.0 mi NE 1.2 mph - N/A   Clear
1:58 AM 40.8 °F 34.2 °F 77% 30.31 in 10.0 mi NNE 2.3 mph - N/A   Clear
2:58 AM 40.8 °F 34.7 °F 79% 30.32 in 10.0 mi Calm Calm - N/A   Clear
3:58 AM 43.5 °F 35.4 °F 73% 30.32 in 10.0 mi NNE 2.3 mph - N/A   Clear
4:58 AM 42.6 °F 35.1 °F 75% 30.33 in 10.0 mi Calm Calm - N/A   Clear
5:58 AM 43.0 °F 35.2 °F 74% 30.33 in 10.0 mi Calm Calm - N/A   Clear
6:58 AM 38.7 °F 35.8 °F 89% 30.34 in 10.0 mi NNW 2.3 mph - N/A   Clear
7:58 AM 47.8 °F 39.6 °F 73% 30.37 in 10.0 mi NW 2.3 mph - N/A   Mostly Cloudy
8:58 AM 51.1 °F 41.0 °F 68% 30.37 in 10.0 mi Calm Calm - N/A   Clear
9:53 AM 55.4 °F 39.2 °F 54% 30.13 in 2.0 mi SE 3.5 mph - N/A   Haze
9:58 AM 55.6 °F 38.8 °F 53% 30.36 in 10.0 mi ESE 2.3 mph - N/A   Clear
10:58 AM 60.1 °F 40.1 °F 48% 30.35 in 10.0 mi South 4.6 mph - N/A   Partly Cloudy
11:58 AM 60.3 °F 41.7 °F 50% 30.33 in 10.0 mi SW 10.4 mph - N/A   Mostly Cloudy
12:58 PM 62.1 °F 42.4 °F 49% 30.31 in 10.0 mi SW 6.9 mph - N/A   Scattered Clouds
1:58 PM 61.5 °F 43.3 °F 51% 30.29 in 10.0 mi SSW 3.5 mph - N/A   Overcast
2:58 PM 60.8 °F 44.6 °F 55% 30.29 in 10.0 mi SW 4.6 mph - N/A   Overcast
3:58 PM 59.7 °F 45.3 °F 59% 30.29 in 10.0 mi Calm Calm - N/A   Overcast
4:58 PM 57.0 °F 45.0 °F 64% 30.29 in 10.0 mi SE 6.9 mph - N/A   Mostly Cloudy
5:58 PM 53.1 °F 43.0 °F 69% 30.30 in 10.0 mi SE 8.1 mph - N/A   Mostly Cloudy
6:13 PM 53.6 °F 42.8 °F 67% 30.07 in 7.0 mi SE 6.9 mph - N/A   Overcast
6:58 PM 53.4 °F 43.5 °F 69% 30.30 in 5.0 mi SE 5.8 mph - N/A   Haze
7:13 PM 53.6 °F 42.8 °F 67% 30.06 in 7.0 mi SE 8.1 mph - N/A   Overcast
7:58 PM 50.5 °F 43.2 °F 76% 30.30 in 10.0 mi SSE 10.4 mph - N/A   Overcast
8:58 PM 52.7 °F 43.3 °F 70% 30.31 in 10.0 mi SSE 8.1 mph - N/A   Overcast
9:58 PM 52.9 °F 43.9 °F 71% 30.32 in 10.0 mi SSE 8.1 mph - N/A   Overcast
10:58 PM 52.2 °F 44.2 °F 74% 30.31 in 10.0 mi SE 9.2 mph - N/A   Mostly Cloudy
11:58 PM 52.3 °F 44.4 °F 74% 30.32 in 10.0 mi SE 8.1 mph - N/A   Scattered Clouds